Time,TemperatureF,DewpointF,PressureIn,WindDirection,WindDirectionDegrees,WindSpeedMPH,WindSpeedGustMPH,Humidity,HourlyPrecipIn,Conditions,Clouds,dailyrainin,SolarRadiationWatts/m^2,SoftwareType,DateUTC
2013-11-30 00:05:00,31.3,25.8,30.38,SSE,147,6.0,7.0,80,0.00,,,0.00,0,Wunderground v.1.15,2013-11-30 06:05:00,
2013-11-30 00:10:00,31.2,25.7,30.38,SE,146,6.0,6.0,80,0.00,,,0.00,0,Wunderground v.1.15,2013-11-30 06:10:00,
2013-11-30 00:15:00,31.2,26.0,30.38,SE,146,6.0,7.0,81,0.00,,,0.00,0,Wunderground v.1.15,2013-11-30 06:15:00,
2013-11-30 00:20:00,31.3,26.1,30.37,SE,146,6.0,6.0,81,0.00,,,0.00,0,Wunderground v.1.15,2013-11-30 06:20:00,
2013-11-30 00:25:00,31.5,26.3,30.37,SE,146,7.0,7.0,81,0.00,,,0.00,0,Wunderground v.1.15,2013-11-30 06:25:00,
2013-11-30 00:35:00,31.6,26.4,30.37,SE,146,6.0,7.0,81,0.00,,,0.00,0,Wunderground v.1.15,2013-11-30 06:35:00,
2013-11-30 00:40:00,31.6,26.4,30.37,SE,146,6.0,6.0,81,0.00,,,0.00,0,Wunderground v.1.15,2013-11-30 06:40:00,
2013-11-30 00:45:00,31.6,26.4,30.37,SE,146,6.0,6.0,81,0.00,,,0.00,0,Wunderground v.1.15,2013-11-30 06:45:00,
2013-11-30 00:50:00,31.6,26.4,30.36,SE,146,5.0,7.0,81,0.00,,,0.00,0,Wunderground v.1.15,2013-11-30 06:50:00,
2013-11-30 00:55:00,31.6,26.4,30.36,SE,146,5.0,7.0,81,0.00,,,0.00,0,Wunderground v.1.15,2013-11-30 06:55:00,
2013-11-30 01:00:00,31.6,26.4,30.36,SE,146,6.0,9.0,81,0.00,,,0.00,0,Wunderground v.1.15,2013-11-30 07:00:00,
2013-11-30 01:05:00,31.6,26.4,30.36,SE,146,7.0,9.0,81,0.00,,,0.00,0,Wunderground v.1.15,2013-11-30 07:05:00,
2013-11-30 01:10:00,31.5,26.3,30.35,SE,146,6.0,6.0,81,0.00,,,0.00,0,Wunderground v.1.15,2013-11-30 07:10:00,
2013-11-30 01:15:00,31.4,26.2,30.35,SE,146,6.0,7.0,81,0.00,,,0.00,0,Wunderground v.1.15,2013-11-30 07:15:00,
2013-11-30 01:20:00,31.2,26.0,30.35,SE,146,6.0,6.0,81,0.00,,,0.00,0,Wunderground v.1.15,2013-11-30 07:20:00,
2013-11-30 01:25:00,31.1,26.2,30.34,SE,146,6.0,6.0,82,0.00,,,0.00,0,Wunderground v.1.15,2013-11-30 07:25:00,
2013-11-30 01:30:00,30.9,26.1,30.35,SSE,148,6.0,6.0,82,0.00,,,0.00,0,Wunderground v.1.15,2013-11-30 07:30:00,
2013-11-30 01:40:00,30.7,25.9,30.34,SSE,149,5.0,6.0,82,0.00,,,0.00,0,Wunderground v.1.15,2013-11-30 07:40:00,
2013-11-30 01:45:00,30.5,25.7,30.34,SSE,149,5.0,6.0,82,0.00,,,0.00,0,Wunderground v.1.15,2013-11-30 07:45:00,
2013-11-30 01:50:00,30.4,25.9,30.34,SSE,149,4.0,4.0,83,0.00,,,0.00,0,Wunderground v.1.15,2013-11-30 07:50:00,
2013-11-30 01:55:00,30.4,25.9,30.35,SSE,149,4.0,4.0,83,0.00,,,0.00,0,Wunderground v.1.15,2013-11-30 07:55:00,
2013-11-30 02:00:00,30.5,26.0,30.35,SSE,149,4.0,4.0,83,0.00,,,0.00,0,Wunderground v.1.15,2013-11-30 08:00:00,
2013-11-30 02:05:00,30.6,26.1,30.35,SSE,149,5.0,5.0,83,0.00,,,0.00,0,Wunderground v.1.15,2013-11-30 08:05:00,
2013-11-30 02:15:00,30.7,26.1,30.35,SSE,150,4.0,5.0,83,0.00,,,0.00,0,Wunderground v.1.15,2013-11-30 08:15:00,
2013-11-30 02:20:00,30.8,26.2,30.35,SSE,150,4.0,4.0,83,0.00,,,0.00,0,Wunderground v.1.15,2013-11-30 08:20:00,
2013-11-30 02:25:00,30.8,26.2,30.35,SSE,150,4.0,4.0,83,0.00,,,0.00,0,Wunderground v.1.15,2013-11-30 08:25:00,
2013-11-30 02:30:00,30.7,25.9,30.35,SSE,150,4.0,4.0,82,0.00,,,0.00,0,Wunderground v.1.15,2013-11-30 08:30:00,
2013-11-30 02:35:00,30.5,25.7,30.34,SSE,150,3.0,4.0,82,0.00,,,0.00,0,Wunderground v.1.15,2013-11-30 08:35:00,
2013-11-30 02:45:00,29.8,25.0,30.34,SSE,150,2.0,2.0,82,0.00,,,0.00,0,Wunderground v.1.15,2013-11-30 08:45:00,
2013-11-30 02:50:00,29.5,25.0,30.34,SSE,150,2.0,3.0,83,0.00,,,0.00,0,Wunderground v.1.15,2013-11-30 08:50:00,
2013-11-30 02:55:00,29.2,25.0,30.34,SSE,150,2.0,3.0,84,0.00,,,0.00,0,Wunderground v.1.15,2013-11-30 08:55:00,
2013-11-30 03:00:00,29.0,25.1,30.34,SSE,150,3.0,3.0,85,0.00,,,0.00,0,Wunderground v.1.15,2013-11-30 09:00:00,
2013-11-30 03:05:00,28.9,25.0,30.33,SSE,149,3.0,4.0,85,0.00,,,0.00,0,Wunderground v.1.15,2013-11-30 09:05:00,
2013-11-30 03:10:00,28.8,24.9,30.33,SSE,149,4.0,4.0,85,0.00,,,0.00,0,Wunderground v.1.15,2013-11-30 09:10:00,
2013-11-30 03:20:00,28.4,24.5,30.32,SSE,150,2.0,2.0,85,0.00,,,0.00,0,Wunderground v.1.15,2013-11-30 09:20:00,
2013-11-30 03:25:00,28.3,24.6,30.33,SSE,149,1.0,2.0,86,0.00,,,0.00,0,Wunderground v.1.15,2013-11-30 09:25:00,
2013-11-30 03:30:00,28.2,24.6,30.33,SSE,150,1.0,3.0,86,0.00,,,0.00,0,Wunderground v.1.15,2013-11-30 09:30:00,
2013-11-30 03:35:00,28.2,24.8,30.32,SSE,150,2.0,3.0,87,0.00,,,0.00,0,Wunderground v.1.15,2013-11-30 09:35:00,
2013-11-30 03:40:00,28.2,24.8,30.32,SSE,150,2.0,3.0,87,0.00,,,0.00,0,Wunderground v.1.15,2013-11-30 09:40:00,
2013-11-30 03:50:00,28.1,24.7,30.32,SSE,150,5.0,5.0,87,0.00,,,0.00,0,Wunderground v.1.15,2013-11-30 09:50:00,
2013-11-30 03:55:00,28.1,24.7,30.32,SSE,149,5.0,5.0,87,0.00,,,0.00,0,Wunderground v.1.15,2013-11-30 09:55:00,
2013-11-30 04:00:00,28.0,24.6,30.31,SSE,149,4.0,4.0,87,0.00,,,0.00,0,Wunderground v.1.15,2013-11-30 10:00:00,
2013-11-30 04:05:00,28.0,24.6,30.31,SSE,150,4.0,6.0,87,0.00,,,0.00,0,Wunderground v.1.15,2013-11-30 10:05:00,
2013-11-30 04:10:00,28.0,24.6,30.31,SSE,150,4.0,4.0,87,0.00,,,0.00,0,Wunderground v.1.15,2013-11-30 10:10:00,
2013-11-30 04:15:00,28.1,25.0,30.30,SSE,150,5.0,5.0,88,0.00,,,0.00,0,Wunderground v.1.15,2013-11-30 10:15:00,
2013-11-30 04:25:00,28.4,25.6,30.30,SSE,150,4.0,4.0,89,0.00,,,0.00,0,Wunderground v.1.15,2013-11-30 10:25:00,
2013-11-30 04:30:00,28.7,25.9,30.30,SSE,150,4.0,4.0,89,0.00,,,0.00,0,Wunderground v.1.15,2013-11-30 10:30:00,
2013-11-30 04:35:00,29.0,26.2,30.29,SSE,151,4.0,4.0,89,0.00,,,0.00,0,Wunderground v.1.15,2013-11-30 10:35:00,
2013-11-30 04:40:00,29.3,26.5,30.30,SSE,152,4.0,4.0,89,0.00,,,0.00,0,Wunderground v.1.15,2013-11-30 10:40:00,
2013-11-30 04:45:00,29.4,26.3,30.29,SSE,152,4.0,4.0,88,0.00,,,0.00,0,Wunderground v.1.15,2013-11-30 10:45:00,
2013-11-30 04:55:00,29.6,26.5,30.29,SSE,152,3.0,5.0,88,0.00,,,0.00,0,Wunderground v.1.15,2013-11-30 10:55:00,
2013-11-30 05:00:00,29.7,26.6,30.29,SSE,154,3.0,3.0,88,0.00,,,0.00,0,Wunderground v.1.15,2013-11-30 11:00:00,
2013-11-30 05:05:00,29.7,26.6,30.29,SSE,154,3.0,3.0,88,0.00,,,0.00,0,Wunderground v.1.15,2013-11-30 11:05:00,
2013-11-30 05:10:00,29.7,26.6,30.30,SSE,154,3.0,3.0,88,0.00,,,0.00,0,Wunderground v.1.15,2013-11-30 11:10:00,
2013-11-30 05:15:00,29.6,26.2,30.30,SSE,154,2.0,3.0,87,0.00,,,0.00,0,Wunderground v.1.15,2013-11-30 11:15:00,
2013-11-30 05:20:00,29.4,26.0,30.30,SSE,154,3.0,3.0,87,0.00,,,0.00,0,Wunderground v.1.15,2013-11-30 11:20:00,
2013-11-30 05:30:00,29.2,25.8,30.29,SSE,154,2.0,3.0,87,0.00,,,0.00,0,Wunderground v.1.15,2013-11-30 11:30:00,
2013-11-30 05:35:00,29.1,26.0,30.29,SSE,154,2.0,3.0,88,0.00,,,0.00,0,Wunderground v.1.15,2013-11-30 11:35:00,
2013-11-30 05:40:00,29.0,25.9,30.29,SSE,154,2.0,2.0,88,0.00,,,0.00,0,Wunderground v.1.15,2013-11-30 11:40:00,
2013-11-30 05:45:00,28.9,25.8,30.29,SSE,154,3.0,4.0,88,0.00,,,0.00,0,Wunderground v.1.15,2013-11-30 11:45:00,
2013-11-30 05:50:00,28.8,25.7,30.29,SSE,154,3.0,3.0,88,0.00,,,0.00,0,Wunderground v.1.15,2013-11-30 11:50:00,
2013-11-30 06:00:00,28.7,25.9,30.28,SSE,154,3.0,3.0,89,0.00,,,0.00,0,Wunderground v.1.15,2013-11-30 12:00:00,
2013-11-30 06:05:00,28.8,26.0,30.28,SSE,154,2.0,3.0,89,0.00,,,0.00,0,Wunderground v.1.15,2013-11-30 12:05:00,
2013-11-30 06:10:00,28.7,25.6,30.28,SSE,154,2.0,2.0,88,0.00,,,0.00,0,Wunderground v.1.15,2013-11-30 12:10:00,
2013-11-30 06:15:00,28.5,25.4,30.28,SSE,154,1.0,2.0,88,0.00,,,0.00,0,Wunderground v.1.15,2013-11-30 12:15:00,
2013-11-30 06:20:00,28.3,25.2,30.28,SSE,154,0.0,2.0,88,0.00,,,0.00,0,Wunderground v.1.15,2013-11-30 12:20:00,
2013-11-30 06:25:00,28.2,25.4,30.28,SSE,154,2.0,3.0,89,0.00,,,0.00,0,Wunderground v.1.15,2013-11-30 12:25:00,
2013-11-30 06:35:00,28.9,26.3,30.28,SSE,154,4.0,4.0,90,0.00,,,0.00,0,Wunderground v.1.15,2013-11-30 12:35:00,
2013-11-30 06:40:00,29.1,26.5,30.28,SSE,155,4.0,5.0,90,0.00,,,0.00,0,Wunderground v.1.15,2013-11-30 12:40:00,
2013-11-30 06:45:00,29.4,27.1,30.28,SSE,155,4.0,5.0,91,0.00,,,0.00,0,Wunderground v.1.15,2013-11-30 12:45:00,
2013-11-30 06:50:00,29.7,27.4,30.28,SSE,155,4.0,4.0,91,0.00,,,0.00,0,Wunderground v.1.15,2013-11-30 12:50:00,
2013-11-30 06:55:00,29.8,27.2,30.28,SSE,155,4.0,5.0,90,0.00,,,0.00,0,Wunderground v.1.15,2013-11-30 12:55:00,
2013-11-30 07:05:00,29.9,27.3,30.27,SSE,155,4.0,5.0,90,0.00,,,0.00,5,Wunderground v.1.15,2013-11-30 13:05:00,
2013-11-30 07:10:00,29.9,27.3,30.27,SSE,159,5.0,5.0,90,0.00,,,0.00,7,Wunderground v.1.15,2013-11-30 13:10:00,
2013-11-30 07:15:00,30.1,27.5,30.27,SSE,162,5.0,5.0,90,0.00,,,0.00,11,Wunderground v.1.15,2013-11-30 13:15:00,
2013-11-30 07:20:00,30.1,27.5,30.27,SSE,162,4.0,4.0,90,0.00,,,0.00,14,Wunderground v.1.15,2013-11-30 13:20:00,
2013-11-30 07:25:00,30.2,27.6,30.28,SSE,162,4.0,4.0,90,0.00,,,0.00,16,Wunderground v.1.15,2013-11-30 13:25:00,
2013-11-30 07:30:00,30.2,27.3,30.28,SSE,162,3.0,3.0,89,0.00,,,0.00,25,Wunderground v.1.15,2013-11-30 13:30:00,
2013-11-30 07:40:00,30.4,27.5,30.27,SSE,162,4.0,5.0,89,0.00,,,0.00,42,Wunderground v.1.15,2013-11-30 13:40:00,
2013-11-30 07:45:00,30.7,28.1,30.27,SSE,163,4.0,5.0,90,0.00,,,0.00,53,Wunderground v.1.15,2013-11-30 13:45:00,
2013-11-30 07:50:00,31.0,28.4,30.26,SSE,166,5.0,6.0,90,0.00,,,0.00,63,Wunderground v.1.15,2013-11-30 13:50:00,
2013-11-30 07:55:00,31.4,28.8,30.27,South,171,5.0,6.0,90,0.00,,,0.00,72,Wunderground v.1.15,2013-11-30 13:55:00,
2013-11-30 08:00:00,31.9,29.3,30.27,South,174,5.0,5.0,90,0.00,,,0.00,83,Wunderground v.1.15,2013-11-30 14:00:00,
2013-11-30 08:10:00,32.6,30.0,30.26,South,175,5.0,6.0,90,0.00,,,0.00,109,Wunderground v.1.15,2013-11-30 14:10:00,
2013-11-30 08:15:00,33.0,30.1,30.26,South,177,5.0,10.0,89,0.00,,,0.00,125,Wunderground v.1.15,2013-11-30 14:15:00,
2013-11-30 08:20:00,33.5,30.6,30.26,South,182,6.0,6.0,89,0.00,,,0.00,139,Wunderground v.1.15,2013-11-30 14:20:00,
2013-11-30 08:25:00,34.0,31.1,30.26,South,182,7.0,7.0,89,0.00,,,0.00,155,Wunderground v.1.15,2013-11-30 14:25:00,
2013-11-30 08:30:00,34.5,31.3,30.26,South,191,7.0,10.0,88,0.00,,,0.00,171,Wunderground v.1.15,2013-11-30 14:30:00,
2013-11-30 08:35:00,35.1,31.6,30.26,South,182,8.0,10.0,87,0.00,,,0.00,183,Wunderground v.1.15,2013-11-30 14:35:00,
2013-11-30 08:45:00,36.1,32.0,30.26,South,179,8.0,8.0,85,0.00,,,0.00,207,Wunderground v.1.15,2013-11-30 14:45:00,
2013-11-30 08:50:00,36.6,32.5,30.26,South,175,8.0,8.0,85,0.00,,,0.00,220,Wunderground v.1.15,2013-11-30 14:50:00,
2013-11-30 08:55:00,37.0,32.6,30.26,South,187,8.0,10.0,84,0.00,,,0.00,232,Wunderground v.1.15,2013-11-30 14:55:00,
2013-11-30 09:00:00,37.4,32.7,30.26,South,180,9.0,11.0,83,0.00,,,0.00,243,Wunderground v.1.15,2013-11-30 15:00:00,
2013-11-30 09:10:00,38.3,33.0,30.26,South,190,9.0,9.0,81,0.00,,,0.00,265,Wunderground v.1.15,2013-11-30 15:10:00,
2013-11-30 09:15:00,38.7,33.1,30.26,SSW,195,9.0,12.0,80,0.00,,,0.00,276,Wunderground v.1.15,2013-11-30 15:15:00,
2013-11-30 09:20:00,39.1,33.1,30.25,SSW,200,10.0,13.0,79,0.00,,,0.00,287,Wunderground v.1.15,2013-11-30 15:20:00,
2013-11-30 09:25:00,39.6,33.3,30.24,SSW,198,11.0,14.0,78,0.00,,,0.00,297,Wunderground v.1.15,2013-11-30 15:25:00,
2013-11-30 09:30:00,40.0,33.0,30.24,South,189,12.0,12.0,76,0.00,,,0.00,308,Wunderground v.1.15,2013-11-30 15:30:00,
2013-11-30 09:35:00,40.6,33.3,30.24,South,191,12.0,13.0,75,0.00,,,0.00,318,Wunderground v.1.15,2013-11-30 15:35:00,
2013-11-30 09:40:00,41.1,33.4,30.24,South,190,12.0,12.0,74,0.00,,,0.00,327,Wunderground v.1.15,2013-11-30 15:40:00,
2013-11-30 09:50:00,42.0,33.3,30.24,SSW,196,13.0,13.0,71,0.00,,,0.00,346,Wunderground v.1.15,2013-11-30 15:50:00,
2013-11-30 09:55:00,42.5,33.4,30.24,SSW,196,13.0,13.0,70,0.00,,,0.00,355,Wunderground v.1.15,2013-11-30 15:55:00,
2013-11-30 10:00:00,42.9,33.4,30.24,SSW,192,13.0,13.0,69,0.00,,,0.00,362,Wunderground v.1.15,2013-11-30 16:00:00,
2013-11-30 10:10:00,43.5,33.3,30.23,SSW,201,13.0,13.0,67,0.00,,,0.00,376,Wunderground v.1.15,2013-11-30 16:10:00,
2013-11-30 10:15:00,43.9,33.3,30.23,SSW,203,13.0,15.0,66,0.00,,,0.00,385,Wunderground v.1.15,2013-11-30 16:15:00,
2013-11-30 10:20:00,44.2,33.6,30.23,SSW,198,13.0,13.0,66,0.00,,,0.00,392,Wunderground v.1.15,2013-11-30 16:20:00,
2013-11-30 10:25:00,44.5,33.5,30.23,SSW,196,13.0,17.0,65,0.00,,,0.00,399,Wunderground v.1.15,2013-11-30 16:25:00,
2013-11-30 10:35:00,45.1,33.2,30.23,SSW,199,13.0,14.0,63,0.00,,,0.00,413,Wunderground v.1.15,2013-11-30 16:35:00,
2013-11-30 10:40:00,45.4,33.5,30.22,SSW,205,12.0,15.0,63,0.00,,,0.00,417,Wunderground v.1.15,2013-11-30 16:40:00,
2013-11-30 10:45:00,45.6,33.7,30.22,SSW,196,12.0,15.0,63,0.00,,,0.00,422,Wunderground v.1.15,2013-11-30 16:45:00,
2013-11-30 10:50:00,45.8,33.9,30.22,SW,218,13.0,13.0,63,0.00,,,0.00,425,Wunderground v.1.15,2013-11-30 16:50:00,
2013-11-30 10:55:00,46.0,33.7,30.21,SW,215,13.0,14.0,62,0.00,,,0.00,431,Wunderground v.1.15,2013-11-30 16:55:00,
2013-11-30 11:00:00,46.2,34.3,30.21,SW,223,13.0,13.0,63,0.00,,,0.00,436,Wunderground v.1.15,2013-11-30 17:00:00,
2013-11-30 11:10:00,46.6,34.3,30.20,SW,216,14.0,14.0,62,0.00,,,0.00,443,Wunderground v.1.15,2013-11-30 17:10:00,
2013-11-30 11:15:00,46.9,34.6,30.20,SSW,210,14.0,15.0,62,0.00,,,0.00,446,Wunderground v.1.15,2013-11-30 17:15:00,
2013-11-30 11:20:00,47.1,34.3,30.19,SW,220,13.0,15.0,61,0.00,,,0.00,448,Wunderground v.1.15,2013-11-30 17:20:00,
2013-11-30 11:30:00,47.4,34.6,30.19,SW,221,13.0,13.0,61,0.00,,,0.00,452,Wunderground v.1.15,2013-11-30 17:30:00,
2013-11-30 11:35:00,47.7,34.9,30.18,SW,218,12.0,15.0,61,0.00,,,0.00,455,Wunderground v.1.15,2013-11-30 17:35:00,
2013-11-30 11:40:00,47.9,34.7,30.18,SW,226,12.0,13.0,60,0.00,,,0.00,455,Wunderground v.1.15,2013-11-30 17:40:00,
2013-11-30 11:45:00,48.2,35.0,30.18,SSW,209,13.0,13.0,60,0.00,,,0.00,454,Wunderground v.1.15,2013-11-30 17:45:00,
2013-11-30 11:50:00,48.4,34.7,30.18,SW,221,13.0,13.0,59,0.00,,,0.00,455,Wunderground v.1.15,2013-11-30 17:50:00,
2013-11-30 11:55:00,48.5,34.8,30.18,SW,217,13.0,13.0,59,0.00,,,0.00,457,Wunderground v.1.15,2013-11-30 17:55:00,
2013-11-30 12:00:00,48.8,35.1,30.17,SW,223,12.0,12.0,59,0.00,,,0.00,457,Wunderground v.1.15,2013-11-30 18:00:00,
2013-11-30 12:10:00,49.2,35.5,30.17,SSW,213,11.0,12.0,59,0.00,,,0.00,454,Wunderground v.1.15,2013-11-30 18:10:00,
2013-11-30 12:15:00,49.4,36.5,30.17,SW,223,11.0,12.0,61,0.00,,,0.00,454,Wunderground v.1.15,2013-11-30 18:15:00,
2013-11-30 12:20:00,49.6,35.4,30.16,SW,223,11.0,11.0,58,0.00,,,0.00,452,Wunderground v.1.15,2013-11-30 18:20:00,
2013-11-30 12:25:00,49.7,35.1,30.16,SW,217,11.0,11.0,57,0.00,,,0.00,450,Wunderground v.1.15,2013-11-30 18:25:00,
2013-11-30 12:35:00,50.0,35.8,30.16,SW,220,9.0,10.0,58,0.00,,,0.00,443,Wunderground v.1.15,2013-11-30 18:35:00,
2013-11-30 12:40:00,50.2,35.5,30.15,SW,225,9.0,10.0,57,0.00,,,0.00,439,Wunderground v.1.15,2013-11-30 18:40:00,
2013-11-30 12:45:00,50.5,36.3,30.15,SW,217,9.0,10.0,58,0.00,,,0.00,436,Wunderground v.1.15,2013-11-30 18:45:00,
2013-11-30 12:50:00,50.7,36.0,30.15,SW,215,8.0,8.0,57,0.00,,,0.00,432,Wunderground v.1.15,2013-11-30 18:50:00,
2013-11-30 12:55:00,51.0,35.8,30.14,SSW,196,8.0,8.0,56,0.00,,,0.00,429,Wunderground v.1.15,2013-11-30 18:55:00,
2013-11-30 13:00:00,51.4,36.2,30.14,SSW,210,8.0,12.0,56,0.00,,,0.00,424,Wunderground v.1.15,2013-11-30 19:00:00,
2013-11-30 13:05:00,51.7,36.5,30.14,SSW,205,8.0,12.0,56,0.00,,,0.00,418,Wunderground v.1.15,2013-11-30 19:05:00,
2013-11-30 13:10:00,51.8,36.6,30.14,SSW,209,9.0,9.0,56,0.00,,,0.00,411,Wunderground v.1.15,2013-11-30 19:10:00,
2013-11-30 13:15:00,52.0,36.8,30.13,SSW,209,8.0,9.0,56,0.00,,,0.00,404,Wunderground v.1.15,2013-11-30 19:15:00,
2013-11-30 13:20:00,52.2,36.5,30.13,South,191,7.0,7.0,55,0.00,,,0.00,399,Wunderground v.1.15,2013-11-30 19:20:00,
2013-11-30 13:25:00,52.4,36.7,30.13,South,175,8.0,8.0,55,0.00,,,0.00,392,Wunderground v.1.15,2013-11-30 19:25:00,
2013-11-30 13:30:00,52.6,36.9,30.13,South,177,6.0,10.0,55,0.00,,,0.00,385,Wunderground v.1.15,2013-11-30 19:30:00,
2013-11-30 13:40:00,52.8,37.1,30.12,SSW,211,9.0,11.0,55,0.00,,,0.00,371,Wunderground v.1.15,2013-11-30 19:40:00,
2013-11-30 13:45:00,52.8,37.1,30.11,South,177,9.0,11.0,55,0.00,,,0.00,364,Wunderground v.1.15,2013-11-30 19:45:00,
2013-11-30 13:50:00,53.0,37.3,30.11,South,180,7.0,7.0,55,0.00,,,0.00,353,Wunderground v.1.15,2013-11-30 19:50:00,
2013-11-30 13:55:00,53.1,37.3,30.10,SSW,192,6.0,11.0,55,0.00,,,0.00,345,Wunderground v.1.15,2013-11-30 19:55:00,
2013-11-30 14:00:00,53.3,37.5,30.10,SW,214,8.0,9.0,55,0.00,,,0.00,334,Wunderground v.1.15,2013-11-30 20:00:00,
2013-11-30 14:05:00,53.4,37.6,30.10,SSW,205,9.0,9.0,55,0.00,,,0.00,325,Wunderground v.1.15,2013-11-30 20:05:00,
2013-11-30 14:10:00,53.6,37.8,30.10,SSW,196,7.0,9.0,55,0.00,,,0.00,316,Wunderground v.1.15,2013-11-30 20:10:00,
2013-11-30 14:15:00,53.6,37.8,30.09,South,189,8.0,11.0,55,0.00,,,0.00,306,Wunderground v.1.15,2013-11-30 20:15:00,
2013-11-30 14:20:00,53.5,37.7,30.09,SSW,199,9.0,9.0,55,0.00,,,0.00,295,Wunderground v.1.15,2013-11-30 20:20:00,
2013-11-30 14:25:00,53.5,37.7,30.09,SSW,200,8.0,10.0,55,0.00,,,0.00,285,Wunderground v.1.15,2013-11-30 20:25:00,
2013-11-30 14:30:00,53.6,37.8,30.09,SSW,195,8.0,8.0,55,0.00,,,0.00,272,Wunderground v.1.15,2013-11-30 20:30:00,
2013-11-30 14:35:00,53.5,37.7,30.09,South,182,8.0,8.0,55,0.00,,,0.00,262,Wunderground v.1.15,2013-11-30 20:35:00,
2013-11-30 14:45:00,53.3,37.1,30.08,South,180,7.0,9.0,54,0.00,,,0.00,239,Wunderground v.1.15,2013-11-30 20:45:00,
2013-11-30 14:50:00,53.2,37.4,30.08,South,172,6.0,6.0,55,0.00,,,0.00,227,Wunderground v.1.15,2013-11-30 20:50:00,
2013-11-30 14:55:00,53.2,37.9,30.08,SSW,198,7.0,11.0,56,0.00,,,0.00,213,Wunderground v.1.15,2013-11-30 20:55:00,
2013-11-30 15:00:00,53.1,37.3,30.08,South,177,8.0,8.0,55,0.00,,,0.00,199,Wunderground v.1.15,2013-11-30 21:00:00,
2013-11-30 15:05:00,53.0,37.3,30.08,South,177,6.0,8.0,55,0.00,,,0.00,183,Wunderground v.1.15,2013-11-30 21:05:00,
2013-11-30 15:15:00,52.6,37.3,30.08,South,178,5.0,9.0,56,0.00,,,0.00,151,Wunderground v.1.15,2013-11-30 21:15:00,
2013-11-30 15:20:00,52.4,37.2,30.07,South,182,7.0,8.0,56,0.00,,,0.00,139,Wunderground v.1.15,2013-11-30 21:20:00,
2013-11-30 15:25:00,52.2,37.4,30.08,South,182,7.0,8.0,57,0.00,,,0.00,123,Wunderground v.1.15,2013-11-30 21:25:00,
2013-11-30 15:30:00,52.0,37.2,30.08,South,182,7.0,7.0,57,0.00,,,0.00,109,Wunderground v.1.15,2013-11-30 21:30:00,
2013-11-30 15:35:00,51.7,36.9,30.08,South,182,6.0,7.0,57,0.00,,,0.00,95,Wunderground v.1.15,2013-11-30 21:35:00,
2013-11-30 15:40:00,51.5,37.2,30.09,South,182,6.0,6.0,58,0.00,,,0.00,81,Wunderground v.1.15,2013-11-30 21:40:00,
2013-11-30 15:50:00,51.1,36.8,30.09,South,183,7.0,7.0,58,0.00,,,0.00,56,Wunderground v.1.15,2013-11-30 21:50:00,
2013-11-30 15:55:00,50.8,36.5,30.09,South,183,6.0,7.0,58,0.00,,,0.00,47,Wunderground v.1.15,2013-11-30 21:55:00,
2013-11-30 16:00:00,50.4,36.6,30.09,South,183,5.0,5.0,59,0.00,,,0.00,39,Wunderground v.1.15,2013-11-30 22:00:00,
2013-11-30 16:05:00,49.9,36.1,30.09,South,183,4.0,5.0,59,0.00,,,0.00,30,Wunderground v.1.15,2013-11-30 22:05:00,
2013-11-30 16:10:00,49.5,36.2,30.09,South,183,4.0,5.0,60,0.00,,,0.00,23,Wunderground v.1.15,2013-11-30 22:10:00,
2013-11-30 16:20:00,48.3,35.5,30.09,South,183,5.0,5.0,61,0.00,,,0.00,14,Wunderground v.1.15,2013-11-30 22:20:00,
2013-11-30 16:25:00,47.7,35.3,30.10,South,183,5.0,5.0,62,0.00,,,0.00,11,Wunderground v.1.15,2013-11-30 22:25:00,
2013-11-30 16:30:00,47.1,34.3,30.10,South,183,4.0,4.0,61,0.00,,,0.00,9,Wunderground v.1.15,2013-11-30 22:30:00,
2013-11-30 16:35:00,46.4,34.5,30.10,South,183,4.0,5.0,63,0.00,,,0.00,5,Wunderground v.1.15,2013-11-30 22:35:00,
2013-11-30 16:40:00,45.7,34.2,30.09,South,183,4.0,4.0,64,0.00,,,0.00,0,Wunderground v.1.15,2013-11-30 22:40:00,
2013-11-30 16:45:00,45.2,34.1,30.10,South,183,3.0,4.0,65,0.00,,,0.00,0,Wunderground v.1.15,2013-11-30 22:45:00,
2013-11-30 16:55:00,43.9,32.5,30.10,South,183,1.0,2.0,64,0.00,,,0.00,0,Wunderground v.1.15,2013-11-30 22:55:00,
2013-11-30 17:00:00,43.3,32.7,30.10,South,183,1.0,5.0,66,0.00,,,0.00,0,Wunderground v.1.15,2013-11-30 23:00:00,
2013-11-30 17:05:00,42.5,32.3,30.10,South,183,2.0,5.0,67,0.00,,,0.00,0,Wunderground v.1.15,2013-11-30 23:05:00,
2013-11-30 17:10:00,41.6,31.4,30.10,South,183,3.0,3.0,67,0.00,,,0.00,0,Wunderground v.1.15,2013-11-30 23:10:00,
2013-11-30 17:15:00,40.6,31.6,30.11,South,183,2.0,3.0,70,0.00,,,0.00,0,Wunderground v.1.15,2013-11-30 23:15:00,
2013-11-30 17:25:00,39.6,31.7,30.11,South,183,2.0,3.0,73,0.00,,,0.00,0,Wunderground v.1.15,2013-11-30 23:25:00,
2013-11-30 17:30:00,39.1,31.5,30.11,South,183,3.0,3.0,74,0.00,,,0.00,0,Wunderground v.1.15,2013-11-30 23:30:00,
2013-11-30 17:35:00,38.8,31.9,30.11,South,183,4.0,4.0,76,0.00,,,0.00,0,Wunderground v.1.15,2013-11-30 23:35:00,
2013-11-30 17:40:00,38.8,31.9,30.11,South,183,4.0,4.0,76,0.00,,,0.00,0,Wunderground v.1.15,2013-11-30 23:40:00,
2013-11-30 17:45:00,38.6,31.7,30.11,South,183,4.0,4.0,76,0.00,,,0.00,0,Wunderground v.1.15,2013-11-30 23:45:00,
2013-11-30 17:50:00,38.4,31.8,30.11,South,183,4.0,4.0,77,0.00,,,0.00,0,Wunderground v.1.15,2013-11-30 23:50:00,
2013-11-30 18:00:00,38.3,31.7,30.11,South,183,3.0,3.0,77,0.00,,,0.00,0,Wunderground v.1.15,2013-12-01 00:00:00,
2013-11-30 18:05:00,38.0,31.4,30.11,South,183,2.0,3.0,77,0.00,,,0.00,0,Wunderground v.1.15,2013-12-01 00:05:00,
2013-11-30 18:10:00,37.7,31.1,30.11,South,183,1.0,1.0,77,0.00,,,0.00,0,Wunderground v.1.15,2013-12-01 00:10:00,
2013-11-30 18:15:00,37.4,30.8,30.11,South,183,1.0,1.0,77,0.00,,,0.00,0,Wunderground v.1.15,2013-12-01 00:15:00,
2013-11-30 18:20:00,37.2,31.0,30.11,South,183,0.0,1.0,78,0.00,,,0.00,0,Wunderground v.1.15,2013-12-01 00:20:00,
2013-11-30 18:30:00,36.5,30.6,30.11,South,183,1.0,2.0,79,0.00,,,0.00,0,Wunderground v.1.15,2013-12-01 00:30:00,
2013-11-30 18:35:00,36.4,30.8,30.11,South,183,2.0,2.0,80,0.00,,,0.00,0,Wunderground v.1.15,2013-12-01 00:35:00,
2013-11-30 18:40:00,36.3,31.0,30.11,South,183,1.0,1.0,81,0.00,,,0.00,0,Wunderground v.1.15,2013-12-01 00:40:00,
2013-11-30 18:45:00,36.3,31.3,30.11,South,183,0.0,1.0,82,0.00,,,0.00,0,Wunderground v.1.15,2013-12-01 00:45:00,
2013-11-30 18:50:00,36.4,31.4,30.11,South,183,1.0,2.0,82,0.00,,,0.00,0,Wunderground v.1.15,2013-12-01 00:50:00,
2013-11-30 18:55:00,36.5,31.8,30.11,South,183,3.0,4.0,83,0.00,,,0.00,0,Wunderground v.1.15,2013-12-01 00:55:00,
2013-11-30 19:05:00,37.1,32.7,30.11,South,183,2.0,3.0,84,0.00,,,0.00,0,Wunderground v.1.15,2013-12-01 01:05:00,
2013-11-30 19:10:00,37.1,32.1,30.11,South,183,1.0,1.0,82,0.00,,,0.00,0,Wunderground v.1.15,2013-12-01 01:10:00,
2013-11-30 19:15:00,37.0,31.4,30.11,South,183,0.0,1.0,80,0.00,,,0.00,0,Wunderground v.1.15,2013-12-01 01:15:00,
2013-11-30 19:20:00,36.9,31.0,30.11,South,183,0.0,0.0,79,0.00,,,0.00,0,Wunderground v.1.15,2013-12-01 01:20:00,
2013-11-30 19:25:00,36.6,30.7,30.11,South,183,0.0,0.0,79,0.00,,,0.00,0,Wunderground v.1.15,2013-12-01 01:25:00,
2013-11-30 19:35:00,36.2,31.2,30.11,South,183,0.0,0.0,82,0.00,,,0.00,0,Wunderground v.1.15,2013-12-01 01:35:00,
2013-11-30 19:40:00,36.0,31.0,30.11,South,183,0.0,0.0,82,0.00,,,0.00,0,Wunderground v.1.15,2013-12-01 01:40:00,
2013-11-30 19:45:00,35.8,30.8,30.11,South,183,0.0,1.0,82,0.00,,,0.00,0,Wunderground v.1.15,2013-12-01 01:45:00,
2013-11-30 19:50:00,35.7,31.3,30.11,South,183,1.0,2.0,84,0.00,,,0.00,0,Wunderground v.1.15,2013-12-01 01:50:00,
2013-11-30 19:55:00,35.7,31.6,30.11,South,183,2.0,2.0,85,0.00,,,0.00,0,Wunderground v.1.15,2013-12-01 01:55:00,
2013-11-30 20:00:00,35.7,31.6,30.11,South,183,2.0,3.0,85,0.00,,,0.00,0,Wunderground v.1.15,2013-12-01 02:00:00,
2013-11-30 20:05:00,35.6,31.5,30.10,South,183,2.0,3.0,85,0.00,,,0.00,0,Wunderground v.1.15,2013-12-01 02:05:00,
2013-11-30 20:10:00,35.5,31.4,30.10,South,183,3.0,3.0,85,0.00,,,0.00,0,Wunderground v.1.15,2013-12-01 02:10:00,
2013-11-30 20:15:00,35.5,31.4,30.11,South,183,3.0,4.0,85,0.00,,,0.00,0,Wunderground v.1.15,2013-12-01 02:15:00,
2013-11-30 20:25:00,35.4,31.3,30.11,South,183,3.0,4.0,85,0.00,,,0.00,0,Wunderground v.1.15,2013-12-01 02:25:00,
2013-11-30 20:30:00,35.2,31.1,30.11,South,183,4.0,4.0,85,0.00,,,0.00,0,Wunderground v.1.15,2013-12-01 02:30:00,
2013-11-30 20:35:00,34.8,30.5,30.10,South,183,4.0,4.0,84,0.00,,,0.00,0,Wunderground v.1.15,2013-12-01 02:35:00,
2013-11-30 20:40:00,34.2,30.2,30.10,South,183,4.0,5.0,85,0.00,,,0.00,0,Wunderground v.1.15,2013-12-01 02:40:00,
2013-11-30 20:45:00,33.7,29.7,30.11,South,183,4.0,5.0,85,0.00,,,0.00,0,Wunderground v.1.15,2013-12-01 02:45:00,
2013-11-30 20:50:00,33.4,29.7,30.11,South,183,4.0,4.0,86,0.00,,,0.00,0,Wunderground v.1.15,2013-12-01 02:50:00,
2013-11-30 20:55:00,33.3,29.8,30.11,South,183,4.0,4.0,87,0.00,,,0.00,0,Wunderground v.1.15,2013-12-01 02:55:00,
2013-11-30 21:00:00,33.1,29.7,30.11,South,183,4.0,4.0,87,0.00,,,0.00,0,Wunderground v.1.15,2013-12-01 03:00:00,
2013-11-30 21:10:00,32.7,29.3,30.11,South,183,3.0,4.0,87,0.00,,,0.00,0,Wunderground v.1.15,2013-12-01 03:10:00,
2013-11-30 21:15:00,32.7,29.5,30.11,South,183,3.0,4.0,88,0.00,,,0.00,0,Wunderground v.1.15,2013-12-01 03:15:00,
2013-11-30 21:20:00,32.6,29.4,30.11,South,183,3.0,3.0,88,0.00,,,0.00,0,Wunderground v.1.15,2013-12-01 03:20:00,
2013-11-30 21:25:00,32.4,29.2,30.11,South,183,3.0,3.0,88,0.00,,,0.00,0,Wunderground v.1.15,2013-12-01 03:25:00,
2013-11-30 21:30:00,32.3,29.1,30.11,South,182,3.0,3.0,88,0.00,,,0.00,0,Wunderground v.1.15,2013-12-01 03:30:00,
2013-11-30 21:35:00,32.2,29.3,30.11,South,183,3.0,3.0,89,0.00,,,0.00,0,Wunderground v.1.15,2013-12-01 03:35:00,
2013-11-30 21:40:00,32.3,29.4,30.11,South,183,3.0,3.0,89,0.00,,,0.00,0,Wunderground v.1.15,2013-12-01 03:40:00,
2013-11-30 21:45:00,32.5,29.9,30.11,South,183,3.0,3.0,90,0.00,,,0.00,0,Wunderground v.1.15,2013-12-01 03:45:00,
2013-11-30 21:50:00,32.5,29.9,30.11,South,183,2.0,3.0,90,0.00,,,0.00,0,Wunderground v.1.15,2013-12-01 03:50:00,
2013-11-30 21:55:00,32.4,29.5,30.11,South,183,3.0,3.0,89,0.00,,,0.00,0,Wunderground v.1.15,2013-12-01 03:55:00,
2013-11-30 22:00:00,32.3,29.7,30.11,South,183,3.0,3.0,90,0.00,,,0.00,0,Wunderground v.1.15,2013-12-01 04:00:00,
2013-11-30 22:10:00,32.4,30.1,30.11,South,183,3.0,3.0,91,0.00,,,0.00,0,Wunderground v.1.15,2013-12-01 04:10:00,
2013-11-30 22:15:00,32.3,29.7,30.11,South,183,3.0,3.0,90,0.00,,,0.00,0,Wunderground v.1.15,2013-12-01 04:15:00,
2013-11-30 22:20:00,32.0,29.4,30.11,South,183,3.0,3.0,90,0.00,,,0.00,0,Wunderground v.1.15,2013-12-01 04:20:00,
2013-11-30 22:25:00,31.8,28.9,30.11,South,183,3.0,3.0,89,0.00,,,0.00,0,Wunderground v.1.15,2013-12-01 04:25:00,
2013-11-30 22:30:00,31.5,28.9,30.11,South,183,3.0,3.0,90,0.00,,,0.00,0,Wunderground v.1.15,2013-12-01 04:30:00,
2013-11-30 22:35:00,31.2,28.3,30.11,South,183,3.0,3.0,89,0.00,,,0.00,0,Wunderground v.1.15,2013-12-01 04:35:00,
2013-11-30 22:40:00,30.8,28.2,30.11,South,183,3.0,4.0,90,0.00,,,0.00,0,Wunderground v.1.15,2013-12-01 04:40:00,
2013-11-30 22:45:00,30.8,28.2,30.11,South,183,4.0,5.0,90,0.00,,,0.00,0,Wunderground v.1.15,2013-12-01 04:45:00,
2013-11-30 22:55:00,31.2,28.9,30.11,South,183,5.0,5.0,91,0.00,,,0.00,0,Wunderground v.1.15,2013-12-01 04:55:00,
2013-11-30 23:00:00,30.9,28.6,30.11,South,183,4.0,4.0,91,0.00,,,0.00,0,Wunderground v.1.15,2013-12-01 05:00:00,
2013-11-30 23:05:00,30.7,28.4,30.12,South,183,3.0,4.0,91,0.00,,,0.00,0,Wunderground v.1.15,2013-12-01 05:05:00,
2013-11-30 23:10:00,30.1,27.5,30.11,South,183,4.0,4.0,90,0.00,,,0.00,0,Wunderground v.1.15,2013-12-01 05:10:00,
2013-11-30 23:15:00,29.9,27.6,30.11,South,183,4.0,5.0,91,0.00,,,0.00,0,Wunderground v.1.15,2013-12-01 05:15:00,
2013-11-30 23:25:00,29.9,27.6,30.11,South,183,5.0,5.0,91,0.00,,,0.00,0,Wunderground v.1.15,2013-12-01 05:25:00,
2013-11-30 23:30:00,29.6,27.3,30.11,South,183,4.0,4.0,91,0.00,,,0.00,0,Wunderground v.1.15,2013-12-01 05:30:00,
2013-11-30 23:35:00,29.6,27.6,30.11,South,183,3.0,4.0,92,0.00,,,0.00,0,Wunderground v.1.15,2013-12-01 05:35:00,
2013-11-30 23:40:00,29.6,27.6,30.11,South,183,4.0,5.0,92,0.00,,,0.00,0,Wunderground v.1.15,2013-12-01 05:40:00,
2013-11-30 23:45:00,29.6,27.6,30.11,South,183,4.0,5.0,92,0.00,,,0.00,0,Wunderground v.1.15,2013-12-01 05:45:00,
2013-11-30 23:50:00,29.8,27.8,30.11,South,183,3.0,3.0,92,0.00,,,0.00,0,Wunderground v.1.15,2013-12-01 05:50:00,